This demonstration page uses our WeatherBlox Daily Observations layout. Learn more.

Hourly Observations for December 3, 2016

Temp ( °F °C ) Dew Point ( °F °C ) Humidity (%) Winds ( mph kmh ) Pressure ( in mb ) Visibility ( mi km ) Precip ( " mm )
12:15 am 00:15 Cloudy 29 -1.5 24 -4.3 81 81 S 7 11 30.42 1030 10 16.0934 0 0
12:35 am 00:35 Cloudy 30 -1.3 24 -4.2 81 81 S 5 7 30.42 1030 10 16.0934 0 0
12:55 am 00:55 Cloudy 29 -1.5 25 -4.1 83 83 S 6 9 30.42 1030 10 16.0934 0 0
1:35 am 01:35 Partly Cloudy 27 -2.6 23 -5 84 84 S 6 9 30.42 1030 10 16.0934 0 0
1:55 am 01:55 Clear 28 -2 24 -4.7 82 82 S 7 11 30.39 1029 10 16.0934 0 0
2:15 am 02:15 Clear 28 -2.5 23 -5 83 83 SSW 3 6 30.39 1029 10 16.0934 0 0
2:55 am 02:55 Clear 25 -3.7 21 -5.9 85 85 S 3 6 30.39 1029 10 16.0934 0 0
3:15 am 03:15 Partly Cloudy 24 -4.2 22 -5.8 89 89 S 3 6 30.39 1029 10 16.0934 0 0
3:35 am 03:35 Mostly Cloudy 26 -3.4 23 -4.9 90 90 S 6 9 30.39 1029 10 16.0934 0 0
3:55 am 03:55 Mostly Cloudy 27 -2.7 24 -4.5 88 88 S 5 7 30.36 1028 10 16.0934 0 0
4:35 am 04:35 Clear 27 -2.7 24 -4.2 90 90 Calm 30.33 1027 10 16.0934 0 0
4:55 am 04:55 Clear 27 -2.6 25 -4.1 90 90 S 5 7 30.33 1027 10 16.0934 0 0
5:15 am 05:15 Partly Cloudy 27 -2.6 24 -4.2 89 89 S 3 6 30.33 1027 10 16.0934 0 0
5:35 am 05:35 Partly Cloudy 28 -2.5 25 -4.1 89 89 S 5 7 30.33 1027 10 16.0934 0 0
5:55 am 05:55 Mostly Cloudy 28 -2.2 25 -4 88 88 Calm 30.33 1027 10 16.0934 0 0
6:15 am 06:15 Partly Cloudy 28 -2.5 25 -4.1 89 89 Calm 30.3 1026 10 16.0934 0 0
6:35 am 06:35 Clear 27 -2.6 24 -4.4 88 88 SSE 5 7 30.3 1026 10 16.0934 0 0
6:55 am 06:55 Clear 28 -2.5 24 -4.2 88 88 S 3 6 30.3 1026 10 16.0934 0 0
7:15 am 07:15 Mostly Cloudy 28 -2.1 25 -3.9 88 88 S 3 6 30.3 1026 10 16.0934 0 0
7:35 am 07:35 Cloudy 30 -1.3 26 -3.5 85 85 S 5 7 30.27 1025 10 16.0934 0 0
7:55 am 07:55 Cloudy 31 -0.7 27 -3 85 85 S 5 7 30.27 1025 10 16.0934 0 0
8:15 am 08:15 Cloudy 31 -0.5 27 -2.8 85 85 S 7 11 30.27 1025 10 16.0934 0 0
8:35 am 08:35 Cloudy 31 -0.5 27 -2.8 85 85 S 6 9 30.27 1025 10 16.0934 0 0
8:55 am 08:55 Cloudy with Light Snow 31 -0.6 27 -2.8 85 85 S 6 9 30.27 1025 7 11.26538 0 0
9:15 am 09:15 Cloudy 31 -0.5 27 -2.6 86 86 S 5 7 30.27 1025 10 16.0934 0 0
9:35 am 09:35 Cloudy 31 -0.3 28 -2.5 85 85 S 6 9 30.27 1025 10 16.0934 0 0
9:55 am 09:55 Cloudy 32 0 29 -1.9 87 87 S 6 9 30.27 1025 7 11.26538 0 0
10:35 am 10:35 Cloudy with Mist and Fog 32 0.1 31 -0.6 95 95 S 8 13 30.27 1025 4 6.43736 0 0
10:55 am 10:55 Cloudy with Light Snow 33 0.4 31 -0.3 95 95 S 9 15 30.27 1025 4 6.43736 0 0
11:15 am 11:15 Cloudy with Light Snow 33 0.5 32 -0.1 96 96 S 12 19 30.27 1025 3 4.82802 0 0
11:35 am 11:35 Cloudy with Light Snow 33 0.5 32 0 96 96 S 12 19 30.24 1024 3 4.82802 0 0
11:55 am 11:55 Cloudy with Light Snow 33 0.6 32 0 96 96 S 9 15 30.24 1024 3 4.82802 0 0
12:15 pm 12:15 Cloudy with Light Snow 33 0.6 32 0 96 96 S 8 13 30.24 1024 2 3.21868 0 0
12:35 pm 12:35 Cloudy with Light Snow 33 0.5 32 0 96 96 S 6 9 30.24 1024 1.5 2.41401 0 0
12:55 pm 12:55 Cloudy with Light Snow 33 0.5 32 0 96 96 S 6 9 30.24 1024 1.75 2.816345 0 0
1:15 pm 13:15 Cloudy with Light Snow 33 0.7 32 0.1 96 96 S 7 11 30.24 1024 3 4.82802 0 0
1:35 pm 13:35 Cloudy with Light Snow 33 0.7 32 0.1 96 96 S 7 11 30.18 1022 3 4.82802 0 0
1:55 pm 13:55 Cloudy with Light Snow 33 0.6 32 0 96 96 SSE 9 15 30.18 1022 3 4.82802 0 0
2:15 pm 14:15 Cloudy with Light Snow 33 0.5 32 0 96 96 S 8 13 30.18 1022 3 4.82802 0 0
2:35 pm 14:35 Cloudy with Light Rain 33 0.5 32 0 96 96 S 7 11 30.18 1022 5 8.0467 0 0
2:55 pm 14:55 Cloudy with Mist and Fog 33 0.3 32 -0.1 97 97 SSE 7 11 30.15 1021 5 8.0467 0 0
3:15 pm 15:15 Cloudy 33 0.3 32 -0.1 97 97 SSE 9 15 30.15 1021 7 11.26538 0 0
3:35 pm 15:35 Cloudy 33 0.4 32 -0.1 96 96 SSE 9 15 30.15 1021 7 11.26538 0 0
3:55 pm 15:55 Cloudy 33 0.3 32 -0.1 97 97 SSE 8 13 30.15 1021 7 11.26538 0 0
4:15 pm 16:15 Cloudy 32 0.2 32 -0.2 97 97 SSE 7 11 30.15 1021 10 16.0934 0 0
4:35 pm 16:35 Cloudy 32 0.2 32 -0.2 97 97 SSE 7 11 30.15 1021 7 11.26538 0 0
4:55 pm 16:55 Cloudy 32 0.1 31 -0.3 97 97 S 5 7 30.18 1022 10 16.0934 0 0
5:15 pm 17:15 Cloudy 32 0.1 31 -0.3 97 97 SSE 8 13 30.18 1022 10 16.0934 0 0
5:35 pm 17:35 Cloudy 32 0.1 31 -0.4 96 96 S 6 9 30.18 1022 10 16.0934 0 0
5:55 pm 17:55 Cloudy 32 0.1 31 -0.5 96 96 SSE 8 13 30.12 1020 7 11.26538 0 0
6:15 pm 18:15 Cloudy 32 0 31 -0.3 98 98 SSE 8 13 30.12 1020 7 11.26538 0 0
6:35 pm 18:35 Cloudy 32 0 31 -0.3 98 98 S 7 11 30.12 1020 10 16.0934 0 0
6:55 pm 18:55 Cloudy 32 0 31 -0.3 98 98 S 7 11 30.12 1020 10 16.0934 0 0
7:15 pm 19:15 Cloudy 32 0 31 -0.5 96 96 S 6 9 30.12 1020 10 16.0934 0 0
7:35 pm 19:35 Cloudy 32 0 31 -0.5 96 96 S 7 11 30.12 1020 7 11.26538 0 0
7:55 pm 19:55 Cloudy 32 0 31 -0.5 96 96 S 9 15 30.12 1020 10 16.0934 0 0
8:15 pm 20:15 Cloudy 32 0 31 -0.5 96 96 S 8 13 30.12 1020 10 16.0934 0 0
8:35 pm 20:35 Cloudy 32 0 31 -0.6 96 96 S 5 7 30.12 1020 10 16.0934 0 0
8:55 pm 20:55 Cloudy 32 0 31 -0.6 96 96 SSW 7 11 30.12 1020 10 16.0934 0 0
9:15 pm 21:15 Cloudy 32 0 31 -0.7 95 95 SSW 7 11 30.12 1020 10 16.0934 0 0
9:35 pm 21:35 Cloudy 32 -0.1 31 -0.8 95 95 SSW 5 7 30.12 1020 7 11.26538 0 0
9:55 pm 21:55 Cloudy with Mist and Fog 32 -0.2 31 -0.8 96 96 SSW 6 9 30.15 1021 5 8.0467 0 0
10:15 pm 22:15 Cloudy 32 -0.2 31 -0.8 96 96 SSW 7 11 30.15 1021 7 11.26538 0 0
10:55 pm 22:55 Cloudy with Mist and Fog 32 -0.2 31 -0.8 96 96 SSW 8 13 30.15 1021 5 8.0467 0 0
11:15 pm 23:15 Cloudy with Mist and Fog 31 -0.3 31 -0.8 96 96 SSW 7 11 30.15 1021 1.25 2.011675 0 0
11:35 pm 23:35 Cloudy with Mist and Fog 31 -0.3 31 -0.8 96 96 SSW 8 13 30.15 1021 1 1.60934 0 0
11:55 pm 23:55 Cloudy with Mist and Fog 32 -0.2 31 -0.7 96 96 SW 8 13 30.15 1021 0.75 1.207005 0 0

Powered by AerisWeather